UAL285 KSFO-KEWR

Flight info

Callsign UAL285
Flight time N/A
Altitude 37000
Route TRUKN2 TIPRE Q126 BASNN OVR/N0469F390 DSM EVOTE NELLS KEEHO J584 SLT FQM3
Aircraft B772/H-SDE2E3FGHIJ5LORVWXY/LB1D1

Departure

Time N/A
Airport San Francisco International Airport (KSFO)

Arrival

Time 2026-05-05 06:35
Airport Newark Liberty International Airport (KEWR)
Time Latitude Longitude Altitude Speed Heading
2026-05-05 04:34 41.33071 -94.51293 38834 ft 552 kts 75°
2026-05-05 04:34 41.33716 -94.46251 38831 ft 552 kts 75°
2026-05-05 04:35 41.34999 -94.36168 38819 ft 552 kts 75°
2026-05-05 04:35 41.36271 -94.26088 38822 ft 552 kts 75°
2026-05-05 04:36 41.37529 -94.16061 38829 ft 552 kts 76°
2026-05-05 04:36 41.38777 -94.06029 38819 ft 551 kts 76°
2026-05-05 04:37 41.40015 -93.96008 38816 ft 550 kts 76°
2026-05-05 04:37 41.41247 -93.85956 38820 ft 549 kts 76°
2026-05-05 04:38 41.42470 -93.75914 38824 ft 548 kts 76°
2026-05-05 04:38 41.43682 -93.65895 38826 ft 548 kts 77°
2026-05-05 04:39 41.44771 -93.55832 38826 ft 548 kts 78°
2026-05-05 04:39 41.45710 -93.45744 38821 ft 548 kts 79°
2026-05-05 04:40 41.46638 -93.35653 38807 ft 548 kts 79°
2026-05-05 04:40 41.47585 -93.25563 38814 ft 548 kts 79°
2026-05-05 04:41 41.48537 -93.15481 38811 ft 548 kts 79°
2026-05-05 04:41 41.49484 -93.05371 38809 ft 549 kts 79°
2026-05-05 04:42 41.50412 -92.95337 38803 ft 548 kts 79°
2026-05-05 04:42 41.51336 -92.85234 38800 ft 548 kts 79°
2026-05-05 04:43 41.52249 -92.75149 38806 ft 547 kts 79°
2026-05-05 04:43 41.53154 -92.65066 38810 ft 547 kts 79°
2026-05-05 04:44 41.54049 -92.54987 38799 ft 546 kts 80°
2026-05-05 04:44 41.54931 -92.44937 38784 ft 544 kts 80°
2026-05-05 04:45 41.55803 -92.34909 38779 ft 543 kts 80°
2026-05-05 04:45 41.56664 -92.24914 38764 ft 541 kts 80°
2026-05-05 04:46 41.57514 -92.14943 38764 ft 540 kts 80°
2026-05-05 04:46 41.58351 -92.05027 38771 ft 540 kts 80°
2026-05-05 04:47 41.59182 -91.95064 38765 ft 540 kts 80°
2026-05-05 04:47 41.60007 -91.85085 38785 ft 540 kts 81°
2026-05-05 04:48 41.60821 -91.75115 38781 ft 540 kts 81°
2026-05-05 04:48 41.61627 -91.65143 38787 ft 540 kts 81°
2026-05-05 04:49 41.62424 -91.55166 38785 ft 540 kts 81°
2026-05-05 04:49 41.63211 -91.45208 38787 ft 539 kts 81°
2026-05-05 04:50 41.63989 -91.35249 38775 ft 538 kts 81°
2026-05-05 04:50 41.64758 -91.25303 38783 ft 537 kts 81°
2026-05-05 04:51 41.65512 -91.15437 38773 ft 536 kts 81°
2026-05-05 04:51 41.66260 -91.05525 38765 ft 535 kts 82°
2026-05-05 04:52 41.67001 -90.95606 38759 ft 535 kts 82°
2026-05-05 04:52 41.67730 -90.85714 38745 ft 534 kts 82°
2026-05-05 04:53 41.68451 -90.75825 38743 ft 533 kts 82°
2026-05-05 04:53 41.69162 -90.65955 38759 ft 532 kts 82°
2026-05-05 04:54 41.69863 -90.56104 38743 ft 532 kts 82°
2026-05-05 04:54 41.70550 -90.46330 38753 ft 531 kts 82°
2026-05-05 04:55 41.71235 -90.36470 38753 ft 530 kts 82°
2026-05-05 04:55 41.71908 -90.26643 38738 ft 530 kts 82°
2026-05-05 04:56 41.72567 -90.16913 38740 ft 529 kts 82°
2026-05-05 04:56 41.73112 -90.08757 38737 ft 529 kts 82°
2026-05-05 04:57 41.73761 -89.98953 38742 ft 529 kts 82°
2026-05-05 04:57 41.74401 -89.89142 38728 ft 529 kts 83°
2026-05-05 04:58 41.75032 -89.79338 38719 ft 528 kts 83°
2026-05-05 04:58 41.75655 -89.69528 38721 ft 528 kts 83°
2026-05-05 04:59 41.76270 -89.59722 38721 ft 528 kts 83°
2026-05-05 04:59 41.76875 -89.49922 38717 ft 528 kts 83°
2026-05-05 05:00 41.77473 -89.40115 38733 ft 528 kts 83°
2026-05-05 05:00 41.78059 -89.30363 38719 ft 529 kts 83°
2026-05-05 05:01 41.78642 -89.20526 38730 ft 529 kts 84°
2026-05-05 05:01 41.79214 -89.10701 38725 ft 528 kts 84°
2026-05-05 05:02 41.79778 -89.00888 38695 ft 528 kts 84°
2026-05-05 05:02 41.80333 -88.91088 38700 ft 527 kts 84°
2026-05-05 05:03 41.80880 -88.81305 38708 ft 526 kts 84°
2026-05-05 05:03 41.81415 -88.71544 38707 ft 524 kts 84°
2026-05-05 05:04 41.81942 -88.61793 38701 ft 523 kts 84°
2026-05-05 05:04 41.82459 -88.52071 38704 ft 522 kts 85°
2026-05-05 05:05 41.82965 -88.42423 38698 ft 521 kts 85°
2026-05-05 05:05 41.83464 -88.32747 38681 ft 520 kts 85°
2026-05-05 05:06 41.83953 -88.23073 38683 ft 519 kts 85°
2026-05-05 05:06 41.84435 -88.13411 38684 ft 519 kts 85°
2026-05-05 05:07 41.84908 -88.03761 38671 ft 519 kts 86°
2026-05-05 05:07 41.85372 -87.94105 38667 ft 519 kts 86°
2026-05-05 05:08 41.85830 -87.84436 38678 ft 519 kts 86°
2026-05-05 05:08 41.86279 -87.74765 38673 ft 520 kts 86°
2026-05-05 05:09 41.86719 -87.65089 38671 ft 520 kts 86°
2026-05-05 05:09 41.87150 -87.55462 38670 ft 521 kts 86°
2026-05-05 05:10 41.87577 -87.45757 38665 ft 521 kts 86°
2026-05-05 05:10 41.87996 -87.36033 38670 ft 521 kts 86°
2026-05-05 05:11 41.88406 -87.26309 38679 ft 522 kts 86°
2026-05-05 05:11 41.88808 -87.16578 38673 ft 522 kts 86°
2026-05-05 05:12 41.89202 -87.06852 38682 ft 522 kts 87°
2026-05-05 05:12 41.89588 -86.97122 38690 ft 522 kts 87°
2026-05-05 05:13 41.89965 -86.87403 38677 ft 521 kts 87°
2026-05-05 05:13 41.90332 -86.77745 38678 ft 521 kts 87°
2026-05-05 05:14 41.90693 -86.68031 38677 ft 521 kts 87°
2026-05-05 05:14 41.91046 -86.58308 38661 ft 521 kts 87°
2026-05-05 05:15 41.91390 -86.48595 38651 ft 521 kts 88°
2026-05-05 05:15 41.91726 -86.38883 38650 ft 521 kts 88°
2026-05-05 05:16 41.92053 -86.29167 38661 ft 521 kts 88°
2026-05-05 05:16 41.92373 -86.19451 38649 ft 521 kts 88°
2026-05-05 05:17 41.92684 -86.09736 38660 ft 521 kts 88°
2026-05-05 05:17 41.92987 -86.00027 38659 ft 520 kts 88°
2026-05-05 05:18 41.93280 -85.90377 38658 ft 520 kts 88°
2026-05-05 05:18 41.93567 -85.80662 38664 ft 520 kts 88°
2026-05-05 05:19 41.93845 -85.70961 38655 ft 520 kts 88°
2026-05-05 05:19 41.94115 -85.61252 38657 ft 520 kts 88°
2026-05-05 05:20 41.94377 -85.51546 38656 ft 520 kts 88°
2026-05-05 05:20 41.94631 -85.41838 38657 ft 520 kts 89°
2026-05-05 05:21 41.94877 -85.32127 38658 ft 520 kts 89°
2026-05-05 05:21 41.95115 -85.22424 38669 ft 520 kts 89°
2026-05-05 05:22 41.95166 -85.12713 38672 ft 519 kts 91°
2026-05-05 05:22 41.95084 -85.03004 38660 ft 520 kts 91°
2026-05-05 05:23 41.95011 -84.93345 38671 ft 520 kts 91°
2026-05-05 05:23 41.94958 -84.83620 38662 ft 521 kts 91°
2026-05-05 05:24 41.94908 -84.73947 38687 ft 521 kts 91°
2026-05-05 05:24 41.94848 -84.64202 38682 ft 522 kts 91°
2026-05-05 05:25 41.94778 -84.54445 38690 ft 522 kts 91°
2026-05-05 05:25 41.94699 -84.44668 38695 ft 523 kts 91°
2026-05-05 05:26 41.94612 -84.34900 38686 ft 523 kts 91°
2026-05-05 05:26 41.94516 -84.25123 38701 ft 523 kts 91°
2026-05-05 05:27 41.94413 -84.15363 38713 ft 522 kts 91°
2026-05-05 05:27 41.94242 -84.00752 38703 ft 521 kts 91°
2026-05-05 05:28 41.94119 -83.91100 38691 ft 520 kts 91°
2026-05-05 05:28 41.93988 -83.81400 38682 ft 518 kts 91°
2026-05-05 05:29 41.93849 -83.71739 38681 ft 517 kts 91°
2026-05-05 05:29 41.93702 -83.62076 38685 ft 517 kts 91°
2026-05-05 05:30 41.93548 -83.52430 38676 ft 516 kts 92°
2026-05-05 05:30 41.93433 -83.42796 38699 ft 514 kts 91°
2026-05-05 05:31 41.93410 -83.33197 38701 ft 513 kts 91°
2026-05-05 05:31 41.93387 -83.23617 38696 ft 512 kts 91°
2026-05-05 05:32 41.93341 -83.14120 38676 ft 511 kts 91°
2026-05-05 05:32 41.93279 -83.04590 38684 ft 510 kts 91°
2026-05-05 05:33 41.93208 -82.95082 38676 ft 508 kts 91°
2026-05-05 05:33 41.93130 -82.85598 38676 ft 507 kts 92°
2026-05-05 05:34 41.93045 -82.76120 38657 ft 507 kts 92°
2026-05-05 05:34 41.92953 -82.66653 38676 ft 506 kts 92°
2026-05-05 05:35 41.92853 -82.57195 38678 ft 507 kts 92°
2026-05-05 05:35 41.92744 -82.47726 38691 ft 507 kts 92°
2026-05-05 05:36 41.92629 -82.38317 38697 ft 508 kts 92°
2026-05-05 05:36 41.92505 -82.28766 38697 ft 509 kts 92°
2026-05-05 05:37 41.92373 -82.19317 38703 ft 509 kts 92°
2026-05-05 05:37 41.92234 -82.09801 38708 ft 510 kts 92°
2026-05-05 05:38 41.92086 -82.00262 38724 ft 511 kts 92°
2026-05-05 05:38 41.91931 -81.90728 38714 ft 511 kts 92°
2026-05-05 05:39 41.91689 -81.81200 38711 ft 509 kts 97°
2026-05-05 05:39 41.90877 -81.71774 38719 ft 507 kts 99°
2026-05-05 05:40 41.89986 -81.62378 38705 ft 507 kts 99°
2026-05-05 05:40 41.89117 -81.52979 38715 ft 507 kts 99°
2026-05-05 05:41 41.88263 -81.43575 38720 ft 508 kts 99°
2026-05-05 05:41 41.87411 -81.34229 38722 ft 508 kts 99°
2026-05-05 05:42 41.86544 -81.24815 38718 ft 509 kts 99°
2026-05-05 05:42 41.85667 -81.15396 38715 ft 509 kts 99°
2026-05-05 05:43 41.84781 -81.05975 38724 ft 509 kts 99°
2026-05-05 05:43 41.83889 -80.96562 38736 ft 509 kts 99°
2026-05-05 05:44 41.83140 -80.88732 38740 ft 509 kts 99°
2026-05-05 05:44 41.82232 -80.79310 38739 ft 509 kts 99°
2026-05-05 05:45 41.81163 -80.68309 38735 ft 509 kts 99°
2026-05-05 05:45 41.80397 -80.60493 38730 ft 509 kts 99°
2026-05-05 05:46 41.79465 -80.51093 38730 ft 508 kts 99°
2026-05-05 05:46 41.78524 -80.41715 38760 ft 507 kts 99°
2026-05-05 05:47 41.77578 -80.32350 38772 ft 507 kts 99°
2026-05-05 05:47 41.76626 -80.23008 38762 ft 506 kts 99°
2026-05-05 05:48 41.75669 -80.13673 38778 ft 505 kts 100°
2026-05-05 05:48 41.74704 -80.04350 38778 ft 505 kts 100°
2026-05-05 05:49 41.73733 -79.95039 38771 ft 504 kts 100°
2026-05-05 05:49 41.72756 -79.85750 38786 ft 504 kts 100°
2026-05-05 05:50 41.71772 -79.76469 38787 ft 503 kts 100°
2026-05-05 05:50 41.70789 -79.67259 38795 ft 503 kts 100°
2026-05-05 05:51 41.69793 -79.58006 38795 ft 502 kts 100°
2026-05-05 05:51 41.68790 -79.48762 38798 ft 502 kts 100°
2026-05-05 05:52 41.67779 -79.39517 38787 ft 502 kts 99°
2026-05-05 05:52 41.66761 -79.30266 38816 ft 503 kts 100°
2026-05-05 05:53 41.65731 -79.20975 38818 ft 505 kts 100°
2026-05-05 05:53 41.64697 -79.11711 38819 ft 507 kts 100°
2026-05-05 05:54 41.63652 -79.02382 38814 ft 508 kts 100°
2026-05-05 05:54 41.62597 -78.93036 38824 ft 508 kts 100°
2026-05-05 05:55 41.61535 -78.83696 38816 ft 508 kts 100°
2026-05-05 05:55 41.60468 -78.74376 38819 ft 507 kts 100°
2026-05-05 05:56 41.59394 -78.65079 38818 ft 506 kts 100°
2026-05-05 05:56 41.58315 -78.55802 38823 ft 505 kts 100°
2026-05-05 05:57 41.57231 -78.46534 38820 ft 505 kts 100°
2026-05-05 05:57 41.56143 -78.37288 38817 ft 503 kts 100°
2026-05-05 05:58 41.55050 -78.28110 38821 ft 503 kts 100°
2026-05-05 05:58 41.53948 -78.18890 38819 ft 503 kts 100°
2026-05-05 05:59 41.52837 -78.09670 38819 ft 503 kts 100°
2026-05-05 05:59 41.51717 -78.00421 38819 ft 504 kts 100°
2026-05-05 06:00 41.50539 -77.91203 38810 ft 504 kts 102°
2026-05-05 06:00 41.49219 -77.82013 38814 ft 504 kts 102°
2026-05-05 06:01 41.47892 -77.72898 38815 ft 504 kts 102°
2026-05-05 06:01 41.46569 -77.63717 38809 ft 504 kts 102°
2026-05-05 06:02 41.45249 -77.54539 38810 ft 504 kts 102°
2026-05-05 06:02 41.43920 -77.45350 38802 ft 505 kts 102°
2026-05-05 06:03 41.42582 -77.36160 38807 ft 505 kts 102°
2026-05-05 06:03 41.41236 -77.26965 38815 ft 506 kts 102°
2026-05-05 06:04 41.39879 -77.17751 38819 ft 507 kts 102°
2026-05-05 06:04 41.38515 -77.08547 38825 ft 506 kts 102°
2026-05-05 06:05 41.37160 -76.99449 38409 ft 494 kts 102°
2026-05-05 06:05 41.36501 -76.95041 37938 ft 490 kts 102°
2026-05-05 06:05 41.35827 -76.90554 37460 ft 482 kts 102°
2026-05-05 06:06 41.35191 -76.86320 36716 ft 467 kts 102°
2026-05-05 06:06 41.34558 -76.82120 35704 ft 458 kts 102°
2026-05-05 06:06 41.33926 -76.77957 34878 ft 462 kts 102°
2026-05-05 06:06 41.33108 -76.73845 34480 ft 456 kts 109°
2026-05-05 06:07 41.32073 -76.69888 34216 ft 448 kts 111°
2026-05-05 06:07 41.30975 -76.66042 33909 ft 442 kts 112°
2026-05-05 06:07 41.29879 -76.62240 33516 ft 438 kts 111°
2026-05-05 06:07 41.28813 -76.58469 33008 ft 435 kts 111°
2026-05-05 06:08 41.27770 -76.54694 32554 ft 432 kts 111°
2026-05-05 06:08 41.26753 -76.50946 32119 ft 429 kts 111°
2026-05-05 06:08 41.25750 -76.47224 31715 ft 426 kts 110°
2026-05-05 06:08 41.24761 -76.43541 31313 ft 422 kts 111°
2026-05-05 06:09 41.23773 -76.39869 30901 ft 419 kts 111°
2026-05-05 06:09 41.22807 -76.36286 30499 ft 416 kts 111°
2026-05-05 06:09 41.21820 -76.32635 30106 ft 413 kts 111°
2026-05-05 06:09 41.20863 -76.29100 29688 ft 411 kts 111°
2026-05-05 06:10 41.19885 -76.25494 29262 ft 408 kts 111°
2026-05-05 06:10 41.18939 -76.22010 28834 ft 405 kts 111°
2026-05-05 06:10 41.17986 -76.18510 28424 ft 402 kts 111°
2026-05-05 06:10 41.17037 -76.15030 28024 ft 399 kts 111°
2026-05-05 06:11 41.16094 -76.11572 27593 ft 397 kts 111°
2026-05-05 06:11 41.15164 -76.08166 27104 ft 385 kts 111°
2026-05-05 06:11 41.14260 -76.04861 26245 ft 378 kts 112°
2026-05-05 06:11 41.13390 -76.01682 25919 ft 356 kts 112°
2026-05-05 06:12 41.12566 -75.98676 25540 ft 339 kts 112°
2026-05-05 06:12 41.11767 -75.95773 25232 ft 339 kts 112°
2026-05-05 06:12 41.10915 -75.92696 24895 ft 371 kts 112°
2026-05-05 06:12 41.10002 -75.89403 24494 ft 385 kts 112°
2026-05-05 06:13 41.09094 -75.86108 24089 ft 375 kts 112°
2026-05-05 06:13 41.08211 -75.82898 23720 ft 368 kts 112°
2026-05-05 06:13 41.07335 -75.79721 23334 ft 366 kts 112°
2026-05-05 06:13 41.06465 -75.76578 22889 ft 359 kts 112°
2026-05-05 06:14 41.05617 -75.73512 22505 ft 353 kts 113°
2026-05-05 06:14 41.04773 -75.70472 22154 ft 350 kts 113°
2026-05-05 06:14 41.03933 -75.67450 21788 ft 348 kts 113°
2026-05-05 06:14 41.03100 -75.64454 21437 ft 345 kts 113°
2026-05-05 06:15 41.02274 -75.61486 21084 ft 342 kts 114°
2026-05-05 06:15 41.01474 -75.58612 20722 ft 330 kts 114°
2026-05-05 06:15 41.00678 -75.55762 20401 ft 330 kts 114°
2026-05-05 06:15 40.99873 -75.52888 20067 ft 336 kts 114°
2026-05-05 06:16 40.99050 -75.49958 19720 ft 341 kts 114°
2026-05-05 06:16 40.98241 -75.47058 19338 ft 329 kts 114°
2026-05-05 06:16 40.97465 -75.44277 19063 ft 319 kts 114°
2026-05-05 06:16 40.96692 -75.41519 18681 ft 319 kts 115°
2026-05-05 06:17 40.95918 -75.38763 18332 ft 319 kts 115°
2026-05-05 06:17 40.95145 -75.36018 17982 ft 318 kts 115°
2026-05-05 06:17 40.94374 -75.33282 17607 ft 317 kts 115°
2026-05-05 06:17 40.93606 -75.30555 17309 ft 313 kts 115°
2026-05-05 06:18 40.92852 -75.27878 17042 ft 314 kts 115°
2026-05-05 06:18 40.92084 -75.25163 16677 ft 315 kts 114°
2026-05-05 06:18 40.91317 -75.22450 16325 ft 314 kts 114°
2026-05-05 06:18 40.90564 -75.19783 15983 ft 313 kts 114°
2026-05-05 06:19 40.89794 -75.17062 15649 ft 311 kts 114°
2026-05-05 06:19 40.89045 -75.14419 15309 ft 311 kts 114°
2026-05-05 06:19 40.88287 -75.11747 14975 ft 310 kts 114°
2026-05-05 06:19 40.87532 -75.09085 14638 ft 310 kts 113°
2026-05-05 06:20 40.86779 -75.06415 14308 ft 310 kts 113°
2026-05-05 06:20 40.86029 -75.03755 13970 ft 309 kts 112°
2026-05-05 06:20 40.85281 -75.01104 13629 ft 307 kts 112°
2026-05-05 06:20 40.84543 -74.98487 13248 ft 298 kts 112°
2026-05-05 06:21 40.83834 -74.95980 12944 ft 287 kts 113°
2026-05-05 06:21 40.83138 -74.93527 12604 ft 284 kts 113°
2026-05-05 06:21 40.82371 -74.91130 12262 ft 282 kts 124°
2026-05-05 06:21 40.81172 -74.89116 11970 ft 278 kts 135°
2026-05-05 06:22 40.79893 -74.87225 11652 ft 273 kts 136°
2026-05-05 06:22 40.78638 -74.85378 11356 ft 267 kts 136°
2026-05-05 06:22 40.77410 -74.83559 11064 ft 264 kts 136°
2026-05-05 06:22 40.76191 -74.81746 10759 ft 265 kts 135°
2026-05-05 06:23 40.74975 -74.79927 10482 ft 264 kts 135°
2026-05-05 06:23 40.73774 -74.78125 10202 ft 264 kts 135°
2026-05-05 06:23 40.72580 -74.76326 10094 ft 258 kts 135°
2026-05-05 06:23 40.71362 -74.74494 9911 ft 270 kts 135°
2026-05-05 06:24 40.70131 -74.72637 9583 ft 266 kts 135°
2026-05-05 06:24 40.68924 -74.70811 9293 ft 263 kts 135°
2026-05-05 06:24 40.67740 -74.69024 8989 ft 260 kts 135°
2026-05-05 06:24 40.66558 -74.67238 8705 ft 257 kts 136°
2026-05-05 06:25 40.65387 -74.65470 8404 ft 254 kts 136°
2026-05-05 06:25 40.64231 -74.63725 8126 ft 252 kts 136°
2026-05-05 06:25 40.63075 -74.61984 7852 ft 254 kts 136°
2026-05-05 06:25 40.61890 -74.60204 7579 ft 262 kts 136°
2026-05-05 06:26 40.60700 -74.58412 7279 ft 259 kts 136°
2026-05-05 06:26 40.59513 -74.56625 6996 ft 260 kts 136°
2026-05-05 06:26 40.58707 -74.55413 6816 ft 260 kts 136°
2026-05-05 06:27 40.58703 -74.55406 6815 ft 260 kts 136°
2026-05-05 06:27 40.56351 -74.51865 6221 ft 255 kts 137°
2026-05-05 06:27 40.55170 -74.50093 6019 ft 257 kts 137°
2026-05-05 06:28 40.54011 -74.48351 5735 ft 254 kts 137°
2026-05-05 06:28 40.52852 -74.46611 5346 ft 251 kts 138°
2026-05-05 06:28 40.51714 -74.44902 5061 ft 247 kts 138°
2026-05-05 06:28 40.50573 -74.43195 4782 ft 251 kts 139°
2026-05-05 06:29 40.49452 -74.41415 4507 ft 258 kts 129°
2026-05-05 06:29 40.48934 -74.39134 4201 ft 266 kts 92°
2026-05-05 06:29 40.49369 -74.36885 4011 ft 244 kts 69°
2026-05-05 06:29 40.49927 -74.34850 3992 ft 233 kts 72°
2026-05-05 06:30 40.50445 -74.32842 3998 ft 232 kts 72°
2026-05-05 06:30 40.50957 -74.30828 4004 ft 233 kts 73°
2026-05-05 06:30 40.51559 -74.28871 3882 ft 229 kts 56°
2026-05-05 06:30 40.52685 -74.27517 3472 ft 210 kts 25°
2026-05-05 06:31 40.53941 -74.26600 3191 ft 206 kts 20°
2026-05-05 06:31 40.55219 -74.25763 2904 ft 200 kts 19°
2026-05-05 06:31 40.56434 -74.24989 2615 ft 188 kts 18°
2026-05-05 06:31 40.57571 -74.24271 2374 ft 183 kts 17°
2026-05-05 06:32 40.58733 -74.23537 2139 ft 184 kts 18°
2026-05-05 06:32 40.59876 -74.22811 1886 ft 184 kts 18°
2026-05-05 06:32 40.61031 -74.22083 1642 ft 184 kts 19°
2026-05-05 06:32 40.62159 -74.21362 1382 ft 177 kts 21°
2026-05-05 06:33 40.63257 -74.20666 1116 ft 174 kts 23°
2026-05-05 06:33 40.63977 -74.20198 1047 ft 168 kts 20°
2026-05-05 06:33 40.65031 -74.19529 824 ft 165 kts 22°
2026-05-05 06:33 40.66039 -74.18913 569 ft 154 kts 25°
2026-05-05 06:34 40.66972 -74.18319 305 ft 148 kts 26°
2026-05-05 06:34 40.67901 -74.17726 107 ft 151 kts 27°
2026-05-05 06:34 40.68819 -74.17124 38 ft 141 kts 27°
2026-05-05 06:34 40.69598 -74.16624 28 ft 103 kts 26°
2026-05-05 06:35 40.69983 -74.16392 25 ft 36 kts 11°
2026-05-05 06:35 40.70055 -74.16449 30 ft 10 kts 289°
2026-05-05 06:35 40.70056 -74.16457 30 ft 0 kts 287°
2026-05-05 06:36 40.70057 -74.16458 30 ft 0 kts 287°
2026-05-05 06:36 40.70060 -74.16476 30 ft 4 kts 284°
2026-05-05 06:37 40.70069 -74.16564 29 ft 20 kts 275°
2026-05-05 06:37 40.70087 -74.16805 27 ft 28 kts 275°
2026-05-05 06:37 40.70101 -74.17031 27 ft 21 kts 275°
2026-05-05 06:37 40.70113 -74.17223 27 ft 21 kts 274°
2026-05-05 06:38 40.70124 -74.17408 27 ft 18 kts 275°
2026-05-05 06:38 40.70137 -74.17573 27 ft 16 kts 276°
2026-05-05 06:38 40.70071 -74.17665 27 ft 13 kts 190°
2026-05-05 06:38 40.70000 -74.17697 27 ft 10 kts 233°
2026-05-05 06:39 40.69989 -74.17785 27 ft 8 kts 269°
2026-05-05 06:39 40.69973 -74.17835 27 ft 4 kts 230°
2026-05-05 06:39 40.69952 -74.17855 27 ft 3 kts 214°
2026-05-05 06:39 40.69938 -74.17866 27 ft 1 kts 208°
2026-05-05 06:40 40.69929 -74.17872 27 ft 0 kts 206°
2026-05-05 06:40 40.69927 -74.17873 27 ft 0 kts 206°